TimeMDT,TemperatureF,Dew PointF,Humidity,Sea Level PressureIn,VisibilityMPH,Wind Direction,Wind SpeedMPH,Gust SpeedMPH,PrecipitationIn,Events,Conditions,WindDirDegrees,DateUTC
12:53 AM,51.1,28.9,43,29.69,10.0,SSW,3.5,-,N/A,,Clear,200,2013-05-28 06:53:00
1:53 AM,48.9,26.1,41,29.68,10.0,SSE,3.5,-,N/A,,Clear,150,2013-05-28 07:53:00
2:53 AM,50.0,25.0,38,29.66,10.0,Calm,Calm,-,N/A,,Clear,0,2013-05-28 08:53:00
3:53 AM,44.1,24.1,45,29.67,10.0,Calm,Calm,-,N/A,,Clear,0,2013-05-28 09:53:00
4:53 AM,44.1,25.0,47,29.66,10.0,Calm,Calm,-,N/A,,Clear,0,2013-05-28 10:53:00
5:53 AM,43.0,24.1,47,29.66,10.0,South,3.5,-,N/A,,Clear,190,2013-05-28 11:53:00
6:53 AM,45.0,27.0,49,29.66,10.0,South,3.5,-,N/A,,Clear,170,2013-05-28 12:53:00
7:53 AM,48.9,32.0,52,29.64,10.0,Calm,Calm,-,N/A,,Clear,0,2013-05-28 13:53:00
8:53 AM,54.0,28.0,37,29.64,10.0,Calm,Calm,-,N/A,,Clear,0,2013-05-28 14:53:00
9:53 AM,61.0,27.0,27,29.63,10.0,Calm,Calm,-,N/A,,Unknown,0,2013-05-28 15:53:00
10:53 AM,66.0,26.1,22,29.61,10.0,Calm,Calm,-,N/A,,Clear,0,2013-05-28 16:53:00
11:53 AM,70.0,28.0,21,29.58,10.0,WNW,4.6,-,N/A,,Clear,290,2013-05-28 17:53:00
12:53 PM,72.0,25.0,17,29.55,10.0,Variable,6.9,-,N/A,,Scattered Clouds,0,2013-05-28 18:53:00
1:53 PM,75.0,21.9,14,29.54,10.0,SSW,15.0,21.9,N/A,,Scattered Clouds,200,2013-05-28 19:53:00
2:53 PM,75.0,21.9,14,29.51,10.0,SW,12.7,26.5,N/A,,Scattered Clouds,220,2013-05-28 20:53:00
3:53 PM,77.0,24.1,14,29.50,10.0,WSW,19.6,27.6,N/A,,Scattered Clouds,250,2013-05-28 21:53:00
4:53 PM,75.9,25.0,15,29.50,10.0,West,19.6,31.1,N/A,,Partly Cloudy,280,2013-05-28 22:53:00
5:07 PM,77.0,24.8,14,29.66,10.0,West,20.7,27.6,N/A,,Partly Cloudy,270,2013-05-28 23:07:00
5:53 PM,73.9,26.1,17,29.50,10.0,West,25.3,29.9,N/A,,Clear,280,2013-05-28 23:53:00
6:53 PM,68.0,30.9,25,29.55,10.0,West,19.6,28.8,N/A,,Clear,280,2013-05-29 00:53:00
7:41 PM,66.2,30.2,26,29.70,10.0,WNW,12.7,-,N/A,,Clear,300,2013-05-29 01:41:00
7:53 PM,66.0,32.0,28,29.57,10.0,West,11.5,19.6,N/A,,Partly Cloudy,280,2013-05-29 01:53:00
8:53 PM,62.1,34.0,35,29.58,8.0,NW,6.9,-,N/A,,Partly Cloudy,320,2013-05-29 02:53:00
9:53 PM,59.0,36.0,42,29.60,10.0,NW,10.4,-,N/A,,Partly Cloudy,320,2013-05-29 03:53:00
10:53 PM,57.0,39.0,51,29.62,10.0,NW,21.9,28.8,N/A,,Overcast,310,2013-05-29 04:53:00
11:53 PM,55.0,39.0,55,29.63,10.0,West,27.6,34.5,N/A,,Overcast,260,2013-05-29 05:53:00